| time (UTC) | temp C | wind direction | speed KPH | gust KPH | rain 1hr cm | rain 24hr cm | rain mn cm | humidity % | barometer mb |
| 20260905111044 | 31 | 85 | 22.5 | 33.8 | 0.00 | 0.00 | 0.00 | 35 | 1017.8 |
| 20260905110545 | 31 | 58 | 19.3 | 38.6 | 0.00 | 0.00 | 0.00 | 35 | 1017.8 |
| 20260905110044 | 31 | 67 | 19.3 | 38.6 | 0.00 | 0.00 | 0.00 | 36 | 1017.8 |
| 20260905105543 | 31 | 21 | 19.3 | 35.4 | 0.00 | 0.00 | 0.00 | 35 | 1017.8 |
| 20260905105044 | 31 | 39 | 20.9 | 38.6 | 0.00 | 0.00 | 0.00 | 35 | 1017.8 |
| 20260905104541 | 31 | 105 | 22.5 | 38.6 | 0.00 | 0.00 | 0.00 | 35 | 1017.7 |
| 20260905104044 | 31 | 61 | 16.1 | 35.4 | 0.00 | 0.00 | 0.00 | 35 | 1017.7 |
| 20260905103540 | 31 | 88 | 19.3 | 35.4 | 0.00 | 0.00 | 0.00 | 35 | 1017.7 |
| 20260905103041 | 31 | 18 | 16.1 | 32.2 | 0.00 | 0.00 | 0.00 | 35 | 1017.7 |
| 20260905102539 | 31 | 66 | 16.1 | 35.4 | 0.00 | 0.00 | 0.00 | 35 | 1017.7 |
| 20260905102039 | 31 | 19 | 17.7 | 35.4 | 0.00 | 0.00 | 0.00 | 35 | 1017.8 |
| 20260905101549 | 31 | 67 | 19.3 | 45.1 | 0.00 | 0.00 | 0.00 | 35 | 1017.7 |
| 20260905101038 | 31 | 95 | 27.4 | 45.1 | 0.00 | 0.00 | 0.00 | 35 | 1017.8 |
| 20260905100538 | 31 | 90 | 20.9 | 33.8 | 0.00 | 0.00 | 0.00 | 35 | 1017.8 |
| 20260905100046 | 31 | 360 | 20.9 | 32.2 | 0.00 | 0.00 | 0.00 | 35 | 1017.7 |
| 20260905095537 | 31 | 33 | 20.9 | 41.8 | 0.00 | 0.00 | 0.00 | 35 | 1017.8 |
| 20260905095036 | 31 | 47 | 16.1 | 46.7 | 0.00 | 0.00 | 0.00 | 35 | 1017.8 |
| 20260905094536 | 31 | 32 | 20.9 | 46.7 | 0.00 | 0.00 | 0.00 | 35 | 1017.9 |
| 20260905094035 | 31 | 41 | 17.7 | 38.6 | 0.00 | 0.00 | 0.00 | 35 | 1017.8 |
| 20260905093534 | 31 | 52 | 24.1 | 38.6 | 0.00 | 0.00 | 0.00 | 36 | 1017.9 |
| 20260905093033 | 31 | 68 | 25.7 | 37.0 | 0.00 | 0.00 | 0.00 | 35 | 1017.9 |
| 20260905092533 | 31 | 49 | 19.3 | 35.4 | 0.00 | 0.00 | 0.00 | 36 | 1017.9 |
| 20260905092031 | 30 | 23 | 24.1 | 37.0 | 0.00 | 0.00 | 0.00 | 37 | 1017.9 |
| 20260905091534 | 31 | 5 | 16.1 | 33.8 | 0.00 | 0.00 | 0.00 | 37 | 1018.1 |
| 20260905091029 | 30 | 77 | 20.9 | 41.8 | 0.00 | 0.00 | 0.00 | 37 | 1018.2 |
| 20260905090527 | 30 | 24 | 25.7 | 41.8 | 0.00 | 0.00 | 0.00 | 36 | 1018.2 |
| 20260905090026 | 30 | 5 | 14.5 | 40.2 | 0.00 | 0.00 | 0.00 | 38 | 1018.2 |
| 20260905085530 | 30 | 52 | 16.1 | 40.2 | 0.00 | 0.00 | 0.00 | 38 | 1018.2 |
| 20260905085026 | 30 | 14 | 22.5 | 35.4 | 0.00 | 0.00 | 0.00 | 38 | 1018.1 |
| 20260905084522 | 30 | 355 | 14.5 | 35.4 | 0.00 | 0.00 | 0.00 | 39 | 1018.2 |
| 20260905084021 | 30 | 48 | 19.3 | 35.4 | 0.00 | 0.00 | 0.00 | 39 | 1018.2 |
| 20260905083520 | 30 | 46 | 20.9 | 35.4 | 0.00 | 0.00 | 0.00 | 39 | 1018.3 |
| 20260905083019 | 30 | 32 | 20.9 | 35.4 | 0.00 | 0.00 | 0.00 | 39 | 1018.4 |
| 20260905082517 | 30 | 31 | 25.7 | 37.0 | 0.00 | 0.00 | 0.00 | 39 | 1018.4 |
| 20260905082018 | 30 | 34 | 17.7 | 37.0 | 0.00 | 0.00 | 0.00 | 39 | 1018.3 |
| 20260905081515 | 30 | 75 | 16.1 | 35.4 | 0.00 | 0.00 | 0.00 | 39 | 1018.3 |
| 20260905081014 | 29 | 40 | 20.9 | 38.6 | 0.00 | 0.00 | 0.00 | 39 | 1018.5 |
| 20260905080514 | 29 | 36 | 20.9 | 38.6 | 0.00 | 0.00 | 0.00 | 40 | 1018.4 |
| 20260905080012 | 29 | 5 | 22.5 | 40.2 | 0.00 | 0.00 | 0.00 | 39 | 1018.4 |
| 20260905075511 | 29 | 59 | 22.5 | 40.2 | 0.00 | 0.00 | 0.00 | 39 | 1018.3 |
| 20260905075010 | 29 | 12 | 24.1 | 33.8 | 0.00 | 0.00 | 0.00 | 41 | 1018.2 |
| 20260905074509 | 29 | 19 | 17.7 | 24.1 | 0.00 | 0.00 | 0.00 | 41 | 1018.1 |
| 20260905074006 | 29 | 11 | 14.5 | 30.6 | 0.00 | 0.00 | 0.00 | 41 | 1018.2 |
| 20260905073505 | 28 | 23 | 16.1 | 30.6 | 0.00 | 0.00 | 0.00 | 41 | 1018.2 |
| 20260905073004 | 28 | 16 | 20.9 | 35.4 | 0.00 | 0.00 | 0.00 | 42 | 1018.0 |
| 20260905072505 | 28 | 5 | 19.3 | 35.4 | 0.00 | 0.00 | 0.00 | 42 | 1018.0 |
| 20260905072001 | 28 | 360 | 16.1 | 33.8 | 0.00 | 0.00 | 0.00 | 42 | 1018.1 |
| 20260905071601 | 28 | 46 | 17.7 | 33.8 | 0.00 | 0.00 | 0.00 | 42 | 1017.9 |
| 20260905071102 | 28 | 17 | 14.5 | 33.8 | 0.00 | 0.00 | 0.00 | 42 | 1018.0 |
| 20260905070558 | 28 | 30 | 20.9 | 33.8 | 0.00 | 0.00 | 0.00 | 42 | 1018.0 |
| 20260905070056 | 28 | 32 | 14.5 | 37.0 | 0.00 | 0.00 | 0.00 | 41 | 1017.9 |
| 20260905065554 | 28 | 72 | 17.7 | 37.0 | 0.00 | 0.00 | 0.00 | 42 | 1017.9 |
| 20260905065054 | 28 | 40 | 17.7 | 29.0 | 0.00 | 0.00 | 0.00 | 41 | 1017.9 |
| 20260905064552 | 28 | 16 | 12.9 | 29.0 | 0.00 | 0.00 | 0.00 | 41 | 1017.8 |
| 20260905064050 | 28 | 58 | 9.7 | 33.8 | 0.00 | 0.00 | 0.00 | 42 | 1017.8 |
| 20260905063548 | 28 | 26 | 14.5 | 33.8 | 0.00 | 0.00 | 0.00 | 42 | 1017.8 |
| 20260905063047 | 28 | 73 | 17.7 | 32.2 | 0.00 | 0.00 | 0.00 | 42 | 1017.7 |
| 20260905062545 | 28 | 336 | 12.9 | 32.2 | 0.00 | 0.00 | 0.00 | 44 | 1017.7 |
| 20260905062044 | 27 | 36 | 20.9 | 32.2 | 0.00 | 0.00 | 0.00 | 43 | 1017.8 |
| 20260905061544 | 27 | 49 | 20.9 | 32.2 | 0.00 | 0.00 | 0.00 | 44 | 1017.8 |
| 20260905061042 | 27 | 57 | 20.9 | 32.2 | 0.00 | 0.00 | 0.00 | 44 | 1017.8 |
| 20260905060541 | 27 | 15 | 12.9 | 30.6 | 0.00 | 0.00 | 0.00 | 44 | 1017.8 |
| 20260905060040 | 27 | 50 | 19.3 | 30.6 | 0.00 | 0.00 | 0.00 | 43 | 1017.9 |
| 20260905055543 | 27 | 40 | 19.3 | 30.6 | 0.00 | 0.00 | 0.00 | 44 | 1017.9 |
| 20260905055041 | 27 | 64 | 12.9 | 27.4 | 0.00 | 0.00 | 0.00 | 44 | 1017.8 |
| 20260905054539 | 27 | 50 | 8.0 | 19.3 | 0.00 | 0.00 | 0.00 | 47 | 1017.8 |
| 20260905054035 | 26 | 344 | 0.0 | 4.8 | 0.00 | 0.00 | 0.00 | 50 | 1017.8 |
| 20260905053534 | 26 | 161 | 1.6 | 4.8 | 0.00 | 0.00 | 0.00 | 52 | 1017.7 |
| 20260905053032 | 26 | 177 | 0.0 | 4.8 | 0.00 | 0.00 | 0.00 | 53 | 1017.7 |
| 20260905052533 | 26 | 209 | 0.0 | 3.2 | 0.00 | 0.00 | 0.00 | 53 | 1017.7 |
| 20260905052034 | 25 | 212 | 0.0 | 4.8 | 0.00 | 0.00 | 0.00 | 53 | 1017.6 |
| 20260905051536 | 25 | 279 | 0.0 | 4.8 | 0.00 | 0.00 | 0.00 | 55 | 1017.7 |
| 20260905051026 | 25 | 309 | 1.6 | 8.0 | 0.00 | 0.00 | 0.00 | 55 | 1017.7 |
| 20260905050525 | 25 | 350 | 0.0 | 8.0 | 0.00 | 0.00 | 0.00 | 56 | 1017.7 |
| 20260905050026 | 25 | 332 | 3.2 | 14.5 | 0.00 | 0.00 | 0.00 | 57 | 1017.7 |
| 20260905045523 | 25 | 284 | 3.2 | 14.5 | 0.00 | 0.00 | 0.00 | 57 | 1017.7 |
| 20260905045024 | 25 | 338 | 6.4 | 17.7 | 0.00 | 0.00 | 0.00 | 57 | 1017.5 |
| 20260905044520 | 25 | 331 | 11.3 | 16.1 | 0.00 | 0.00 | 0.00 | 58 | 1017.5 |
| 20260905044019 | 25 | 319 | 8.0 | 16.1 | 0.00 | 0.00 | 0.00 | 58 | 1017.5 |
| 20260905043517 | 24 | 315 | 9.7 | 16.1 | 0.00 | 0.00 | 0.00 | 58 | 1017.4 |
| 20260905043016 | 24 | 302 | 6.4 | 16.1 | 0.00 | 0.00 | 0.00 | 58 | 1017.5 |
| 20260905042518 | 24 | 300 | 9.7 | 16.1 | 0.00 | 0.00 | 0.00 | 58 | 1017.5 |
| 20260905042013 | 24 | 345 | 6.4 | 16.1 | 0.00 | 0.00 | 0.00 | 57 | 1017.4 |
| 20260905041513 | 24 | 340 | 6.4 | 16.1 | 0.00 | 0.00 | 0.00 | 56 | 1017.3 |
| 20260905041013 | 24 | 78 | 1.6 | 6.4 | 0.00 | 0.00 | 0.00 | 56 | 1017.2 |
| 20260905040512 | 24 | 350 | 1.6 | 8.0 | 0.00 | 0.00 | 0.00 | 55 | 1017.1 |
| 20260905040011 | 25 | 336 | 4.8 | 8.0 | 0.00 | 0.00 | 0.00 | 55 | 1017.0 |
| 20260905035511 | 24 | 304 | 1.6 | 6.4 | 0.00 | 0.00 | 0.00 | 56 | 1016.9 |
| 20260905035015 | 24 | 272 | 0.0 | 6.4 | 0.00 | 0.00 | 0.00 | 57 | 1017.0 |
| 20260905034510 | 24 | 281 | 0.0 | 6.4 | 0.00 | 0.00 | 0.00 | 56 | 1017.0 |
| 20260905034010 | 24 | 276 | 1.6 | 8.0 | 0.00 | 0.00 | 0.00 | 56 | 1016.9 |
| 20260905033512 | 24 | 190 | 4.8 | 8.0 | 0.00 | 0.00 | 0.00 | 57 | 1016.9 |
| 20260905033018 | 24 | 330 | 4.8 | 11.3 | 0.00 | 0.00 | 0.00 | 57 | 1016.9 |
| 20260905032509 | 24 | 190 | 8.0 | 11.3 | 0.00 | 0.00 | 0.00 | 57 | 1016.8 |
| 20260905032009 | 24 | 240 | 1.6 | 6.4 | 0.00 | 0.00 | 0.00 | 56 | 1016.9 |
| 20260905031509 | 24 | 270 | 3.2 | 6.4 | 0.00 | 0.00 | 0.00 | 57 | 1016.8 |
| 20260905031008 | 24 | 302 | 3.2 | 6.4 | 0.00 | 0.00 | 0.00 | 56 | 1016.8 |
| 20260905030508 | 24 | 225 | 0.0 | 4.8 | 0.00 | 0.00 | 0.00 | 55 | 1016.9 |
| 20260905030010 | 24 | 182 | 0.0 | 6.4 | 0.00 | 0.00 | 0.00 | 55 | 1016.8 |
| 20260905025507 | 24 | 189 | 3.2 | 6.4 | 0.00 | 0.00 | 0.00 | 54 | 1016.8 |
| 20260905025007 | 24 | 215 | 3.2 | 6.4 | 0.00 | 0.00 | 0.00 | 53 | 1016.8 |
| 20260905024507 | 25 | 231 | 1.6 | 4.8 | 0.00 | 0.00 | 0.00 | 53 | 1016.9 |
| 20260905024008 | 25 | 217 | 1.6 | 4.8 | 0.00 | 0.00 | 0.00 | 51 | 1016.9 |
| 20260905023507 | 25 | 208 | 1.6 | 12.9 | 0.00 | 0.00 | 0.00 | 51 | 1016.9 |
| 20260905023006 | 25 | 205 | 8.0 | 12.9 | 0.00 | 0.00 | 0.00 | 50 | 1016.8 |
| 20260905022507 | 24 | 179 | 11.3 | 14.5 | 0.00 | 0.00 | 0.00 | 52 | 1016.8 |
| 20260905022006 | 24 | 127 | 3.2 | 6.4 | 0.00 | 0.00 | 0.00 | 52 | 1017.0 |
| 20260905021505 | 24 | 126 | 1.6 | 8.0 | 0.00 | 0.00 | 0.00 | 52 | 1016.9 |
| 20260905021005 | 24 | 126 | 3.2 | 6.4 | 0.00 | 0.00 | 0.00 | 53 | 1016.8 |
| 20260905020509 | 24 | 117 | 0.0 | 12.9 | 0.00 | 0.00 | 0.00 | 53 | 1016.9 |
| 20260905020005 | 23 | 119 | 6.4 | 12.9 | 0.00 | 0.00 | 0.00 | 53 | 1016.8 |
| 20260905015504 | 23 | 129 | 1.6 | 6.4 | 0.00 | 0.00 | 0.00 | 53 | 1016.6 |
| 20260905015008 | 24 | 67 | 3.2 | 9.7 | 0.00 | 0.00 | 0.00 | 53 | 1016.9 |
| 20260905014503 | 24 | 11 | 4.8 | 14.5 | 0.00 | 0.00 | 0.00 | 53 | 1016.7 |
| 20260905014003 | 25 | 23 | 8.0 | 17.7 | 0.00 | 0.00 | 0.00 | 52 | 1016.6 |
| 20260905013502 | 25 | 55 | 8.0 | 17.7 | 0.00 | 0.00 | 0.00 | 51 | 1016.5 |
| 20260905013005 | 25 | 50 | 6.4 | 20.9 | 0.00 | 0.00 | 0.00 | 51 | 1016.5 |
| 20260905012502 | 25 | 85 | 9.7 | 25.7 | 0.00 | 0.00 | 0.00 | 50 | 1016.5 |
| 20260905012002 | 25 | 82 | 12.9 | 25.7 | 0.00 | 0.00 | 0.00 | 50 | 1016.6 |
| 20260905011504 | 25 | 79 | 9.7 | 16.1 | 0.00 | 0.00 | 0.00 | 50 | 1016.7 |
| 20260905011001 | 25 | 105 | 11.3 | 20.9 | 0.00 | 0.00 | 0.00 | 50 | 1016.6 |
| 20260905010500 | 25 | 87 | 11.3 | 19.3 | 0.00 | 0.00 | 0.00 | 49 | 1016.6 |
| 20260905010000 | 25 | 105 | 9.7 | 16.1 | 0.00 | 0.00 | 0.00 | 49 | 1016.6 |
| 20260905005600 | 25 | 59 | 8.0 | 14.5 | 0.00 | 0.00 | 0.00 | 49 | 1016.6 |
| 20260905005105 | 25 | 102 | 4.8 | 14.5 | 0.00 | 0.00 | 0.00 | 49 | 1016.6 |
| 20260905004617 | 25 | 117 | 6.4 | 14.5 | 0.00 | 0.00 | 0.00 | 49 | 1016.7 |
| 20260905004058 | 25 | 99 | 4.8 | 14.5 | 0.00 | 0.00 | 0.00 | 48 | 1016.6 |
| 20260905003600 | 25 | 111 | 8.0 | 11.3 | 0.00 | 0.00 | 0.00 | 48 | 1016.7 |
| 20260905003102 | 25 | 107 | 4.8 | 9.7 | 0.00 | 0.00 | 0.00 | 48 | 1016.7 |
| 20260905002557 | 25 | 101 | 1.6 | 9.7 | 0.00 | 0.00 | 0.00 | 48 | 1016.6 |
| 20260905002058 | 25 | 137 | 0.0 | 0.0 | 0.00 | 0.00 | 0.00 | 47 | 1016.6 |
| 20260905001601 | 25 | 141 | 0.0 | 4.8 | 0.00 | 0.00 | 0.00 | 47 | 1016.7 |
| 20260905001059 | 25 | 144 | 0.0 | 9.7 | 0.00 | 0.00 | 0.00 | 47 | 1016.8 |
| 20260905000557 | 25 | 147 | 3.2 | 9.7 | 0.00 | 0.00 | 0.00 | 47 | 1016.7 |
| 20260905000116 | 25 | 99 | 1.6 | 4.8 | 0.00 | 0.00 | 0.00 | 48 | 1016.7 |
| 20260904235558 | 25 | 45 | 0.0 | 0.0 | 0.00 | 0.00 | 0.00 | 48 | 1016.7 |
| 20260904235057 | 25 | 46 | 0.0 | 3.2 | 0.00 | 0.00 | 0.00 | 48 | 1016.8 |
| 20260904234556 | 25 | 45 | 0.0 | 3.2 | 0.00 | 0.00 | 0.00 | 48 | 1016.8 |
| 20260904234056 | 25 | 38 | 0.0 | 0.0 | 0.00 | 0.00 | 0.00 | 49 | 1016.8 |
| 20260904233557 | 25 | 38 | 0.0 | 1.6 | 0.00 | 0.00 | 0.00 | 49 | 1016.7 |
| 20260904233057 | 24 | 39 | 0.0 | 1.6 | 0.00 | 0.00 | 0.00 | 49 | 1016.6 |
| 20260904232657 | 24 | 39 | 0.0 | 3.2 | 0.00 | 0.00 | 0.00 | 50 | 1016.7 |
| 20260904232057 | 24 | 39 | 0.0 | 3.2 | 0.00 | 0.00 | 0.00 | 50 | 1016.7 |
| 20260904231554 | 23 | 36 | 1.6 | 6.4 | 0.00 | 0.00 | 0.00 | 50 | 1016.7 |
| 20260904231053 | 24 | 34 | 3.2 | 6.4 | 0.00 | 0.00 | 0.00 | 51 | 1016.7 |
| 20260904230553 | 24 | 21 | 4.8 | 6.4 | 0.00 | 0.00 | 0.00 | 50 | 1016.9 |
| 20260904230109 | 24 | 26 | 3.2 | 8.0 | 0.00 | 0.00 | 0.00 | 50 | 1016.8 |
| 20260904225553 | 23 | 32 | 3.2 | 8.0 | 0.00 | 0.00 | 0.00 | 51 | 1016.9 |
| 20260904225051 | 23 | 30 | 3.2 | 8.0 | 0.00 | 0.00 | 0.00 | 51 | 1016.9 |
| 20260904224550 | 23 | 28 | 4.8 | 8.0 | 0.00 | 0.00 | 0.00 | 51 | 1016.9 |
| 20260904224050 | 23 | 14 | 4.8 | 8.0 | 0.00 | 0.00 | 0.00 | 51 | 1017.0 |
| 20260904223548 | 24 | 31 | 3.2 | 6.4 | 0.00 | 0.00 | 0.00 | 50 | 1017.0 |
| 20260904223051 | 24 | 31 | 3.2 | 6.4 | 0.00 | 0.00 | 0.00 | 49 | 1017.0 |
| 20260904222549 | 25 | 34 | 1.6 | 6.4 | 0.00 | 0.00 | 0.00 | 49 | 1017.0 |
| 20260904222044 | 25 | 97 | 0.0 | 6.4 | 0.00 | 0.00 | 0.00 | 47 | 1016.9 |
| 20260904221546 | 25 | 82 | 0.0 | 9.7 | 0.00 | 0.00 | 0.00 | 46 | 1017.0 |
| 20260904221042 | 26 | 85 | 1.6 | 9.7 | 0.00 | 0.00 | 0.00 | 45 | 1017.1 |
| 20260904220544 | 26 | 82 | 4.8 | 11.3 | 0.00 | 0.00 | 0.00 | 45 | 1017.2 |
| 20260904220045 | 26 | 89 | 4.8 | 9.7 | 0.00 | 0.00 | 0.00 | 45 | 1017.2 |
| 20260904215543 | 26 | 73 | 4.8 | 12.9 | 0.00 | 0.00 | 0.00 | 45 | 1017.2 |
| 20260904215040 | 26 | 85 | 6.4 | 12.9 | 0.00 | 0.00 | 0.00 | 45 | 1017.1 |
| 20260904214540 | 26 | 90 | 3.2 | 12.9 | 0.00 | 0.00 | 0.00 | 44 | 1017.3 |
| 20260904214039 | 26 | 72 | 3.2 | 14.5 | 0.00 | 0.00 | 0.00 | 44 | 1017.2 |
| 20260904213539 | 26 | 112 | 3.2 | 14.5 | 0.00 | 0.00 | 0.00 | 44 | 1017.2 |
| 20260904213042 | 26 | 53 | 4.8 | 11.3 | 0.00 | 0.00 | 0.00 | 44 | 1017.3 |
| 20260904212540 | 26 | 75 | 1.6 | 6.4 | 0.00 | 0.00 | 0.00 | 45 | 1017.2 |
| 20260904212038 | 26 | 88 | 0.0 | 9.7 | 0.00 | 0.00 | 0.00 | 45 | 1017.3 |
| 20260904211535 | 26 | 88 | 4.8 | 11.3 | 0.00 | 0.00 | 0.00 | 45 | 1017.2 |
| 20260904211035 | 26 | 97 | 0.0 | 4.8 | 0.00 | 0.00 | 0.00 | 46 | 1017.3 |
| 20260904210537 | 26 | 92 | 1.6 | 6.4 | 0.00 | 0.00 | 0.00 | 45 | 1017.2 |
| 20260904210034 | 25 | 98 | 0.0 | 6.4 | 0.00 | 0.00 | 0.00 | 46 | 1017.3 |
| 20260904205534 | 25 | 71 | 0.0 | 6.4 | 0.00 | 0.00 | 0.00 | 46 | 1017.2 |
| 20260904205033 | 26 | 84 | 1.6 | 6.4 | 0.00 | 0.00 | 0.00 | 45 | 1017.3 |
| 20260904204535 | 26 | 101 | 0.0 | 4.8 | 0.00 | 0.00 | 0.00 | 45 | 1017.3 |
| 20260904204034 | 26 | 78 | 1.6 | 4.8 | 0.00 | 0.00 | 0.00 | 46 | 1017.3 |
| 20260904203532 | 25 | 74 | 0.0 | 1.6 | 0.00 | 0.00 | 0.00 | 48 | 1017.4 |
| 20260904203032 | 25 | 73 | 0.0 | 3.2 | 0.00 | 0.00 | 0.00 | 48 | 1017.4 |
| 20260904202532 | 25 | 73 | 0.0 | 3.2 | 0.00 | 0.00 | 0.00 | 48 | 1017.4 |
| 20260904202031 | 26 | 75 | 0.0 | 8.0 | 0.00 | 0.00 | 0.00 | 48 | 1017.4 |
| 20260904201531 | 26 | 76 | 1.6 | 8.0 | 0.00 | 0.00 | 0.00 | 46 | 1017.5 |
| 20260904201033 | 26 | 63 | 0.0 | 4.8 | 0.00 | 0.00 | 0.00 | 46 | 1017.5 |
| 20260904200535 | 26 | 39 | 0.0 | 4.8 | 0.00 | 0.00 | 0.00 | 47 | 1017.4 |
| 20260904200042 | 26 | 34 | 1.6 | 6.4 | 0.00 | 0.00 | 0.00 | 47 | 1017.4 |
| 20260904195532 | 26 | 15 | 3.2 | 8.0 | 0.00 | 0.00 | 0.00 | 47 | 1017.5 |
| 20260904195030 | 26 | 95 | 3.2 | 8.0 | 0.00 | 0.00 | 0.00 | 46 | 1017.5 |
| 20260904194534 | 26 | 84 | 0.0 | 9.7 | 0.00 | 0.00 | 0.00 | 46 | 1017.5 |
| 20260904194030 | 26 | 107 | 3.2 | 12.9 | 0.00 | 0.00 | 0.00 | 47 | 1017.5 |
| 20260904193530 | 26 | 85 | 4.8 | 12.9 | 0.00 | 0.00 | 0.00 | 47 | 1017.5 |
| 20260904193036 | 26 | 87 | 6.4 | 12.9 | 0.00 | 0.00 | 0.00 | 47 | 1017.5 |
| 20260904192529 | 26 | 117 | 3.2 | 6.4 | 0.00 | 0.00 | 0.00 | 46 | 1017.6 |
| 20260904192029 | 26 | 83 | 0.0 | 16.1 | 0.00 | 0.00 | 0.00 | 45 | 1017.6 |
| 20260904191537 | 26 | 86 | 8.0 | 16.1 | 0.00 | 0.00 | 0.00 | 45 | 1017.6 |
| 20260904191029 | 26 | 87 | 3.2 | 8.0 | 0.00 | 0.00 | 0.00 | 44 | 1017.6 |
| 20260904190529 | 26 | 84 | 0.0 | 8.0 | 0.00 | 0.00 | 0.00 | 44 | 1017.6 |
| 20260904190027 | 27 | 90 | 0.0 | 9.7 | 0.00 | 0.00 | 0.00 | 45 | 1017.5 |
| 20260904185528 | 27 | 93 | 3.2 | 9.7 | 0.00 | 0.00 | 0.00 | 45 | 1017.4 |
| 20260904185026 | 27 | 42 | 0.0 | 4.8 | 0.00 | 0.00 | 0.00 | 45 | 1017.3 |
| 20260904184525 | 27 | 25 | 0.0 | 6.4 | 0.00 | 0.00 | 0.00 | 45 | 1017.2 |
| 20260904184025 | 27 | 82 | 3.2 | 6.4 | 0.00 | 0.00 | 0.00 | 45 | 1017.2 |
| 20260904183525 | 27 | 115 | 1.6 | 6.4 | 0.00 | 0.00 | 0.00 | 46 | 1017.2 |
| 20260904183023 | 27 | 113 | 3.2 | 6.4 | 0.00 | 0.00 | 0.00 | 46 | 1017.1 |
| 20260904182523 | 27 | 88 | 1.6 | 9.7 | 0.00 | 0.00 | 0.00 | 45 | 1017.1 |
| 20260904182023 | 27 | 99 | 6.4 | 14.5 | 0.00 | 0.00 | 0.00 | 45 | 1017.0 |
| 20260904181532 | 27 | 69 | 4.8 | 14.5 | 0.00 | 0.00 | 0.00 | 45 | 1017.1 |
| 20260904181022 | 27 | 67 | 4.8 | 12.9 | 0.00 | 0.00 | 0.00 | 46 | 1017.0 |
| 20260904180522 | 27 | 92 | 6.4 | 16.1 | 0.00 | 0.00 | 0.00 | 45 | 1017.0 |
| 20260904180022 | 27 | 61 | 8.0 | 16.1 | 0.00 | 0.00 | 0.00 | 45 | 1017.0 |
| 20260904175521 | 27 | 111 | 6.4 | 14.5 | 0.00 | 0.00 | 0.00 | 45 | 1016.9 |
| 20260904175021 | 27 | 124 | 8.0 | 14.5 | 0.00 | 0.00 | 0.00 | 45 | 1016.8 |
| 20260904174520 | 27 | 114 | 6.4 | 14.5 | 0.00 | 0.00 | 0.00 | 45 | 1016.8 |
| 20260904174020 | 27 | 72 | 8.0 | 14.5 | 0.00 | 0.00 | 0.00 | 44 | 1016.7 |
| 20260904173517 | 27 | 88 | 6.4 | 14.5 | 0.00 | 0.00 | 0.00 | 44 | 1016.6 |
| 20260904173019 | 27 | 63 | 6.4 | 16.1 | 0.00 | 0.00 | 0.00 | 44 | 1016.4 |
| 20260904172516 | 27 | 360 | 3.2 | 16.1 | 0.00 | 0.00 | 0.00 | 44 | 1016.3 |
| 20260904172016 | 28 | 82 | 6.4 | 19.3 | 0.00 | 0.00 | 0.00 | 44 | 1016.4 |
| 20260904171518 | 28 | 98 | 4.8 | 19.3 | 0.00 | 0.00 | 0.00 | 45 | 1016.3 |
| 20260904171016 | 28 | 55 | 11.3 | 19.3 | 0.00 | 0.00 | 0.00 | 44 | 1016.3 |
| 20260904170514 | 28 | 40 | 12.9 | 19.3 | 0.00 | 0.00 | 0.00 | 43 | 1016.2 |
| 20260904170015 | 28 | 68 | 12.9 | 19.3 | 0.00 | 0.00 | 0.00 | 41 | 1016.1 |
| 20260904165516 | 28 | 82 | 8.0 | 19.3 | 0.00 | 0.00 | 0.00 | 39 | 1016.0 |
| 20260904165015 | 28 | 44 | 9.7 | 22.5 | 0.00 | 0.00 | 0.00 | 38 | 1015.9 |
| 20260904164514 | 28 | 13 | 16.1 | 22.5 | 0.00 | 0.00 | 0.00 | 38 | 1016.0 |
| 20260904164017 | 29 | 59 | 12.9 | 27.4 | 0.00 | 0.00 | 0.00 | 39 | 1016.0 |
| 20260904163513 | 29 | 5 | 16.1 | 27.4 | 0.00 | 0.00 | 0.00 | 39 | 1016.0 |
| 20260904163014 | 29 | 59 | 11.3 | 25.7 | 0.00 | 0.00 | 0.00 | 39 | 1016.0 |
| 20260904162514 | 29 | 44 | 12.9 | 24.1 | 0.00 | 0.00 | 0.00 | 39 | 1016.0 |
| 20260904162014 | 29 | 24 | 14.5 | 27.4 | 0.00 | 0.00 | 0.00 | 39 | 1015.9 |
| 20260904161513 | 29 | 5 | 17.7 | 29.0 | 0.00 | 0.00 | 0.00 | 39 | 1015.9 |
| 20260904161016 | 30 | 349 | 16.1 | 38.6 | 0.00 | 0.00 | 0.00 | 39 | 1015.9 |
| 20260904160514 | 30 | 28 | 24.1 | 38.6 | 0.00 | 0.00 | 0.00 | 39 | 1015.9 |
| 20260904160013 | 30 | 5 | 17.7 | 40.2 | 0.00 | 0.00 | 0.00 | 39 | 1015.8 |
| 20260904155512 | 30 | 355 | 22.5 | 40.2 | 0.00 | 0.00 | 0.00 | 39 | 1015.7 |
| 20260904155012 | 30 | 5 | 20.9 | 37.0 | 0.00 | 0.00 | 0.00 | 38 | 1015.6 |
| 20260904154512 | 30 | 29 | 22.5 | 37.0 | 0.00 | 0.00 | 0.00 | 38 | 1015.6 |
| 20260904154015 | 30 | 55 | 19.3 | 33.8 | 0.00 | 0.00 | 0.00 | 39 | 1015.6 |
| 20260904153511 | 30 | 355 | 19.3 | 35.4 | 0.00 | 0.00 | 0.00 | 39 | 1015.6 |
| 20260904153018 | 30 | 19 | 24.1 | 35.4 | 0.00 | 0.00 | 0.00 | 40 | 1015.5 |
| 20260904152510 | 30 | 17 | 16.1 | 30.6 | 0.00 | 0.00 | 0.00 | 39 | 1015.6 |
| 20260904152010 | 30 | 14 | 14.5 | 33.8 | 0.00 | 0.00 | 0.00 | 38 | 1015.4 |
| 20260904151510 | 30 | 348 | 25.7 | 33.8 | 0.00 | 0.00 | 0.00 | 39 | 1015.4 |
| 20260904151013 | 30 | 19 | 14.5 | 33.8 | 0.00 | 0.00 | 0.00 | 40 | 1015.5 |
| 20260904150508 | 30 | 28 | 12.9 | 33.8 | 0.00 | 0.00 | 0.00 | 40 | 1015.4 |
| 20260904150008 | 30 | 355 | 17.7 | 38.6 | 0.00 | 0.00 | 0.00 | 40 | 1015.4 |
| 20260904145508 | 30 | 39 | 24.1 | 40.2 | 0.00 | 0.00 | 0.00 | 40 | 1015.4 |
| 20260904145008 | 30 | 17 | 25.7 | 40.2 | 0.00 | 0.00 | 0.00 | 40 | 1015.4 |
| 20260904144507 | 30 | 30 | 24.1 | 43.5 | 0.00 | 0.00 | 0.00 | 39 | 1015.4 |
| 20260904144009 | 30 | 9 | 17.7 | 43.5 | 0.00 | 0.00 | 0.00 | 39 | 1015.5 |
| 20260904143505 | 31 | 355 | 24.1 | 38.6 | 0.00 | 0.00 | 0.00 | 38 | 1015.3 |
| 20260904143014 | 31 | 66 | 24.1 | 32.2 | 0.00 | 0.00 | 0.00 | 38 | 1015.5 |
| 20260904142508 | 31 | 54 | 12.9 | 37.0 | 0.00 | 0.00 | 0.00 | 38 | 1015.3 |
| 20260904142005 | 31 | 32 | 22.5 | 37.0 | 0.00 | 0.00 | 0.00 | 39 | 1015.3 |
| 20260904141511 | 31 | 350 | 14.5 | 30.6 | 0.00 | 0.00 | 0.00 | 39 | 1015.2 |
| 20260904141003 | 31 | 5 | 17.7 | 37.0 | 0.00 | 0.00 | 0.00 | 39 | 1015.2 |
| 20260904140503 | 31 | 38 | 14.5 | 33.8 | 0.00 | 0.00 | 0.00 | 39 | 1015.3 |
| 20260904140002 | 31 | 31 | 17.7 | 33.8 | 0.00 | 0.00 | 0.00 | 39 | 1015.1 |
| 20260904135502 | 31 | 61 | 24.1 | 37.0 | 0.00 | 0.00 | 0.00 | 40 | 1015.3 |
| 20260904135001 | 31 | 5 | 24.1 | 37.0 | 0.00 | 0.00 | 0.00 | 41 | 1015.2 |
| 20260904134501 | 31 | 22 | 25.7 | 37.0 | 0.00 | 0.00 | 0.00 | 40 | 1015.3 |
| 20260904134100 | 31 | 360 | 19.3 | 38.6 | 0.00 | 0.00 | 0.00 | 39 | 1015.4 |
| 20260904133600 | 30 | 22 | 27.4 | 41.8 | 0.00 | 0.00 | 0.00 | 40 | 1015.4 |
| 20260904133059 | 31 | 355 | 20.9 | 37.0 | 0.00 | 0.00 | 0.00 | 41 | 1015.4 |
| 20260904132559 | 31 | 67 | 24.1 | 37.0 | 0.00 | 0.00 | 0.00 | 42 | 1015.5 |
| 20260904132058 | 31 | 19 | 22.5 | 41.8 | 0.00 | 0.00 | 0.00 | 42 | 1015.3 |
| 20260904131608 | 31 | 5 | 20.9 | 41.8 | 0.00 | 0.00 | 0.00 | 41 | 1015.3 |
| 20260904131100 | 31 | 18 | 19.3 | 35.4 | 0.00 | 0.00 | 0.00 | 42 | 1015.2 |
| 20260904130556 | 31 | 20 | 20.9 | 35.4 | 0.00 | 0.00 | 0.00 | 41 | 1015.3 |
| 20260904130056 | 31 | 80 | 17.7 | 37.0 | 0.00 | 0.00 | 0.00 | 41 | 1015.3 |
| 20260904125556 | 31 | 23 | 24.1 | 37.0 | 0.00 | 0.00 | 0.00 | 41 | 1015.4 |
| 20260904125056 | 31 | 41 | 19.3 | 33.8 | 0.00 | 0.00 | 0.00 | 40 | 1015.3 |
| 20260904124554 | 31 | 72 | 19.3 | 37.0 | 0.00 | 0.00 | 0.00 | 40 | 1015.1 |
| 20260904124053 | 31 | 23 | 16.1 | 37.0 | 0.00 | 0.00 | 0.00 | 41 | 1015.1 |
| 20260904123552 | 31 | 98 | 19.3 | 37.0 | 0.00 | 0.00 | 0.00 | 40 | 1015.2 |
| 20260904123052 | 31 | 81 | 17.7 | 46.7 | 0.00 | 0.00 | 0.00 | 42 | 1015.3 |
| 20260904122552 | 31 | 57 | 16.1 | 49.9 | 0.00 | 0.00 | 0.00 | 41 | 1015.4 |
| 20260904122051 | 31 | 71 | 25.7 | 40.2 | 0.00 | 0.00 | 0.00 | 40 | 1015.3 |
| 20260904121551 | 31 | 53 | 24.1 | 37.0 | 0.00 | 0.00 | 0.00 | 40 | 1015.3 |
| 20260904121050 | 31 | 47 | 19.3 | 37.0 | 0.00 | 0.00 | 0.00 | 40 | 1015.4 |
| 20260904120549 | 31 | 81 | 19.3 | 45.1 | 0.00 | 0.00 | 0.00 | 40 | 1015.5 |
| 20260904120049 | 31 | 15 | 9.7 | 45.1 | 0.00 | 0.00 | 0.00 | 40 | 1015.5 |
| 20260904115549 | 31 | 84 | 20.9 | 43.5 | 0.00 | 0.00 | 0.00 | 39 | 1015.4 |
| 20260904115048 | 31 | 5 | 11.3 | 33.8 | 0.00 | 0.00 | 0.00 | 39 | 1015.4 |
| 20260904114548 | 31 | 12 | 20.9 | 33.8 | 0.00 | 0.00 | 0.00 | 38 | 1015.6 |
| 20260904114047 | 32 | 360 | 17.7 | 33.8 | 0.00 | 0.00 | 0.00 | 37 | 1015.5 |
| 20260904113546 | 31 | 19 | 12.9 | 32.2 | 0.00 | 0.00 | 0.00 | 39 | 1015.4 |
| 20260904113046 | 31 | 45 | 17.7 | 32.2 | 0.00 | 0.00 | 0.00 | 39 | 1015.4 |
| 20260904112547 | 31 | 48 | 9.7 | 33.8 | 0.00 | 0.00 | 0.00 | 40 | 1015.5 |
| 20260904112044 | 31 | 67 | 22.5 | 40.2 | 0.00 | 0.00 | 0.00 | 40 | 1015.6 |
| 20260904111543 | 31 | 20 | 27.4 | 40.2 | 0.00 | 0.00 | 0.00 | 40 | 1015.7 |